DECAYED

NOAA 16 DEB, 42338 (Decayed)

Orbit data source: Space-Track

NOAA 16 DEB, 42338 was space debris in SSO originally from a launch on Thu, 21 Sep 2000 UTC launched from the Air Force Western Test Range (AFWTR). Debris objects in space refer to the collection of defunct objects orbiting the Earth. Examples of debris include non-operational satellites, rocket bodies, and fragments generated from explosions, collisions, or faulty payload assembly.

Not visible in the next 10 days
NOAA 16 DEB details
Identifier
42338, 2000-055QE
Orbit
Decayed
Last TLE update1 month ago
Origin
Flag of USNOAA (US)
ManufacturerUnknown
MissionDecayed spacecraft
Bus & MotorUnknown
MassUnknown
Launch date (UTC)
2000-09-21 (24 years ago)
Launch vehicleUnknown
Launch site
Air Force Western Test Range (AFWTR)
Object type
Payload
Rocket body
Debris
Shape & HBRUnknown
Radar Cross SectionSmall (<0.1 m²)

Expand to show TLE details & history

TLE from 1 month ago
0 NOAA 16 DEB
1 42338U 00055QE  24325.37762461  .03166497  00000-0  35199-1 0  9996
2 42338  98.6743 109.0176 0029406 302.4142  57.4266 15.58647458456794
Epoch: 2024-11-20T09:03Z
Definitive object data (Epoch: 2024-11-20T09:03:46.766Z)
Latitude-0.00001°
Longitude-86.80184°
Altitude383.995 km
Speed7.686 km/s
True Right ascension07h 16m 04s
True Declination0° 00' 00"
Sunlit
Object was in full shadow at TLE epoch
Visualization observer readout
Observer readout values are unavailable because the object's trajectory could not be propagated. This is usually caused when the trajectory data is faulty or the object's orbit has decayed.
Visualization observer readout
Observer readout values are unavailable because the object's trajectory could not be propagated. This is usually caused when the trajectory data is faulty or the object's orbit has decayed.
Orbital elements
Apogee altitude408.443 km
Perigee altitude368.647 km
Semi-major axis6,766.682 km
Eccentricity0.0029406
Inclination98.6743°
RAAN109.0176°
Arg. of periapsis302.4142°
True anomaly57.71113°
Mean anomaly57.4266°
Eccentric anomaly57.56881°
Mean motion3.89924 °/min
BSTAR0.035199
Orbital period92.33 mins
Loading maneuver chart data...
Loading historical data...
Loading historical data...
Loading historical data...
Loading historical data...
Loading historical data...
Loading historical data...
Loading historical data...

NOAA 16 DEB Visibility forecast

Observer location: undefined°, undefined

This satellite is decayed
Span
Click to sort rows by Start time (UTC) header in descending order
Start Az.
Max El. time (UTC)
Max El. Az.
Max El.
End time (UTC)
End Az.
|